Weather History for Birmingham, United Kingdom

Change the Weather History Date:

Friday, October 4, 2013

  Actual Average Record
Temperature  
Mean Temperature 62 °F -  
Max Temperature 66 °F 56 °F 68 °F (1997)
Min Temperature 57 °F 42 °F 37 °F (2003)
Degree Days  
Heating Degree Days 4    
Growing Degree Days 12 (Base 50)    
Moisture  
Dew Point 59 °F    
Average Humidity 93    
Maximum Humidity 100    
Minimum Humidity 82    
Precipitation  
Precipitation 0.00 in 0.07 in - ()
Sea Level Pressure  
Sea Level Pressure 29.73 in    
Wind  
Wind Speed 9 mph ()    
Max Wind Speed 15 mph    
Max Gust Speed -    
Visibility 5.2 miles    
Events Rain    
Averages and records for this station are not official NWS values.
T = Trace of Precipitation, MM = Missing Value Source: Averaged Metar Reports

Daily Weather History Graph

Daily Weather History Graph

Search for Another Location

Airport:

Trip Planner

Search our weather history database for the weather conditions in past years. The results will help you decide how hot, cold, wet, or windy it might be!

Date:

Astronomy

Oct. 04, 2013 Rise Set
Actual Time 7:13 AM BST 6:37 PM BST
Civil Twilight 6:39 AM BST 7:10 PM BST
Nautical Twilight 5:59 AM BST 7:50 PM BST
Astronomical Twilight 5:19 AM BST 8:30 PM BST
Moon 6:33 AM BST (10/4) 6:07 PM BST (10/4)
Length of Visible Light 12h 31m
Length of Day
11h 23m
Waning Crescent, 0% of the Moon is Illuminated
Oct 4
Waning Crescent
Oct 5
New
Oct 12
First Quarter
Oct 19
Full
Oct 27
Last Quarter

Hourly Weather History & Observations

Time (BST) Temp. Dew Point Humidity Pressure Visibility Wind Dir Wind Speed Gust Speed Precip Events Conditions
12:20 AM 59.0 °F 59.0 °F 100% 29.68 in 3.7 mi SE 8.1 mph - N/A   Unknown
12:50 AM 59.0 °F 59.0 °F 100% 29.68 in 3.1 mi SSE 6.9 mph - N/A   Mist
1:20 AM 60.8 °F 59.0 °F 94% 29.65 in 2.5 mi SE 6.9 mph - N/A   Mostly Cloudy
1:50 AM 62.6 °F 60.8 °F 94% 29.65 in 1.6 mi SE 9.2 mph - N/A   Overcast
2:20 AM 62.6 °F 60.8 °F 94% 29.65 in 1.9 mi SE 8.1 mph - N/A   Mostly Cloudy
2:50 AM 62.6 °F 62.6 °F 100% 29.65 in 1.8 mi SE 6.9 mph - N/A Rain Rain
3:20 AM 62.6 °F 62.6 °F 100% 29.65 in 1.6 mi SE 8.1 mph - N/A Rain Heavy Rain
3:50 AM 62.6 °F 62.6 °F 100% 29.62 in - SE 8.1 mph - N/A   Mostly Cloudy
4:20 AM 62.6 °F 60.8 °F 94% 29.62 in 4.3 mi SE 9.2 mph - N/A   Overcast
5:20 AM 62.6 °F 60.8 °F 94% 29.59 in 5.6 mi SE 9.2 mph - N/A   Mostly Cloudy
5:50 AM 62.6 °F 60.8 °F 94% 29.59 in 5.6 mi SE 11.5 mph - N/A Rain Light Rain Showers
6:20 AM 60.8 °F 60.8 °F 100% 29.59 in 6.2 mi SSE 13.8 mph - N/A Rain Light Rain
6:50 AM 60.8 °F 60.8 °F 100% 29.59 in 6.2 mi South 10.4 mph - N/A   Mostly Cloudy
7:20 AM 60.8 °F 60.8 °F 100% 29.59 in 3.1 mi SSE 11.5 mph - N/A Rain Rain Showers
7:50 AM 60.8 °F 59.0 °F 94% 29.59 in 4.3 mi South 11.5 mph - N/A Rain Light Rain Showers
8:20 AM 60.8 °F 59.0 °F 94% 29.59 in 6.2 mi South 11.5 mph - N/A   Overcast
8:50 AM 60.8 °F 59.0 °F 94% 29.62 in 6.2 mi South 11.5 mph - N/A   Overcast
9:20 AM 60.8 °F 60.8 °F 100% 29.62 in 6.2 mi SSW 12.7 mph - N/A   Overcast
9:50 AM 62.6 °F 60.8 °F 94% 29.65 in 6.2 mi SSW 12.7 mph - N/A   Overcast
10:20 AM 62.6 °F 60.8 °F 94% 29.65 in 4.3 mi SSW 13.8 mph - N/A Rain Light Rain
10:50 AM 62.6 °F 60.8 °F 94% 29.68 in 3.7 mi SW 12.7 mph - N/A Rain Light Rain
11:20 AM 64.4 °F 60.8 °F 88% 29.68 in 6.2 mi SW 13.8 mph - N/A   Mostly Cloudy
11:50 AM 64.4 °F 60.8 °F 88% 29.68 in 6.2 mi SW 12.7 mph - N/A   Mostly Cloudy
12:20 PM 64.4 °F 60.8 °F 88% 29.71 in 6.2 mi SW 11.5 mph - N/A   Mostly Cloudy
12:50 PM 66.2 °F 60.8 °F 83% 29.71 in 6.2 mi SW 12.7 mph - N/A   Mostly Cloudy
1:20 PM 64.4 °F 60.8 °F 88% 29.74 in 6.2 mi SW 11.5 mph - N/A Rain Drizzle
1:50 PM 62.6 °F 60.8 °F 94% 29.74 in 6.2 mi SW 9.2 mph - N/A   Mostly Cloudy
2:20 PM 64.4 °F 60.8 °F 88% 29.74 in 6.2 mi SW 11.5 mph - N/A   Mostly Cloudy
2:50 PM 62.6 °F 60.8 °F 94% 29.77 in 5.6 mi SW 11.5 mph - N/A Rain Light Rain
3:20 PM 62.6 °F 59.0 °F 88% 29.77 in 4.3 mi WSW 12.7 mph - N/A Rain Light Rain
3:50 PM 62.6 °F 60.8 °F 94% 29.80 in 5.6 mi West 11.5 mph - N/A Rain Light Rain
4:20 PM 62.6 °F 60.8 °F 94% 29.80 in 6.2 mi WSW 9.2 mph - N/A   Mostly Cloudy
4:50 PM 62.6 °F 59.0 °F 88% 29.80 in 6.2 mi West 12.7 mph - N/A   Mostly Cloudy
5:20 PM 62.6 °F 59.0 °F 88% 29.80 in 6.2 mi West 15.0 mph - N/A   Scattered Clouds
5:50 PM 62.6 °F 57.2 °F 82% 29.83 in 6.2 mi West 12.7 mph - N/A   Scattered Clouds
6:20 PM 60.8 °F 57.2 °F 88% 29.83 in 6.2 mi WSW 8.1 mph - N/A   Scattered Clouds
6:50 PM 60.8 °F 57.2 °F 88% 29.86 in 6.2 mi West 6.9 mph - N/A   Mostly Cloudy
7:20 PM 59.0 °F 57.2 °F 94% 29.86 in 6.2 mi West 5.8 mph - N/A   Scattered Clouds
7:50 PM 59.0 °F 55.4 °F 88% 29.86 in 6.2 mi SW 6.9 mph - N/A   Scattered Clouds
8:20 PM 59.0 °F 55.4 °F 88% 29.89 in 6.2 mi WSW 4.6 mph - N/A   Scattered Clouds
8:50 PM 57.2 °F 55.4 °F 94% 29.89 in - West 5.8 mph - N/A   Clear
9:20 PM 57.2 °F 53.6 °F 88% 29.89 in 6.2 mi WSW 8.1 mph - N/A   Partly Cloudy
9:50 PM 57.2 °F 53.6 °F 88% 29.92 in 6.2 mi WSW 5.8 mph - N/A   Overcast
10:20 PM 59.0 °F 53.6 °F 82% 29.92 in 6.2 mi Variable 2.3 mph - N/A   Overcast
10:50 PM 57.2 °F 55.4 °F 94% 29.92 in 6.2 mi West 4.6 mph - N/A   Mostly Cloudy
11:20 PM 57.2 °F 55.4 °F 94% 29.92 in 6.2 mi WSW 4.6 mph - N/A   Mostly Cloudy
11:50 PM 57.2 °F 55.4 °F 94% 29.92 in 6.2 mi WSW 4.6 mph - N/A   Mostly Cloudy